Weather History for Fort Madison, IA

Change the Weather History Date:

Sunday, March 10, 2013

  Actual Average Record
Temperature  
Mean Temperature 42 °F -  
Max Temperature 48 °F 46 °F 71 °F (1955)
Min Temperature 37 °F 27 °F 6 °F (1982)
Degree Days  
Heating Degree Days 22    
Moisture  
Dew Point 44 °F    
Average Humidity 95    
Maximum Humidity 100    
Minimum Humidity 87    
Precipitation  
Precipitation 1.18 in - - ()
Sea Level Pressure  
Sea Level Pressure 29.67 in    
Wind  
Wind Speed 6 mph (South)    
Max Wind Speed 15 mph    
Max Gust Speed 20 mph    
Visibility 2 miles    
Events Fog , Rain    
Averages and records for this station are not official NWS values.
T = Trace of Precipitation, MM = Missing Value Source: NWS Daily Summary

Daily Weather History Graph

Daily Weather History Graph

Search for Another Location

Airport:

Trip Planner

Search our weather history database for the weather conditions in past years. The results will help you decide how hot, cold, wet, or windy it might be!

Date:

Astronomy

Mar. 10, 2013 Rise Set
Actual Time 7:24 AM CDT 7:06 PM CDT
Civil Twilight 6:57 AM CDT 7:34 PM CDT
Nautical Twilight 6:25 AM CDT 8:05 PM CDT
Astronomical Twilight 5:53 AM CDT 8:37 PM CDT
Moon 6:24 AM CDT (3/10) 6:15 PM CDT (3/10)
Length of Visible Light 12h 36m
Length of Day
11h 42m
Waning Crescent, 2% of the Moon is Illuminated
Mar 10
Waning Crescent
Mar 11
New
Mar 19
First Quarter
Mar 27
Full
Apr 2
Last Quarter

Hourly Weather History & Observations

Time (CDT) Temp. Windchill Dew Point Humidity Pressure Visibility Wind Dir Wind Speed Gust Speed Precip Events Conditions
12:15 AM 48.2 °F - 44.6 °F 87% 29.75 in 7.0 mi South 5.8 mph - 0.06 in Rain Rain
12:35 AM 48.2 °F - 44.6 °F 87% 29.75 in 4.0 mi SSW 5.8 mph - 0.15 in Rain Heavy Rain
12:55 AM 48.2 °F - 46.4 °F 93% 29.75 in 3.0 mi South 3.5 mph - 0.23 in Rain Heavy Rain
1:15 AM 48.2 °F - 44.6 °F 87% 29.75 in 0.8 mi SSW 4.6 mph - 0.11 in Rain Heavy Rain
1:35 AM 48.2 °F - 46.4 °F 93% 29.76 in 0.5 mi SSW 3.5 mph - 0.24 in Rain Heavy Rain
1:55 AM 48.2 °F - 46.4 °F 93% 29.74 in 0.5 mi SSE 3.5 mph - 0.30 in Rain Rain
3:15 AM 48.2 °F - 46.4 °F 93% 29.73 in 1.0 mi SSE 5.8 mph - 0.03 in Rain Rain
3:35 AM 48.2 °F - 46.4 °F 93% 29.72 in 2.5 mi SSE 8.1 mph - 0.08 in Rain Rain
3:55 AM 46.4 °F 41.9 °F 46.4 °F 100% 29.70 in 5.0 mi SE 9.2 mph - 0.12 in Rain Rain
4:15 AM 46.4 °F 42.4 °F 44.6 °F 93% 29.68 in 2.0 mi SE 8.1 mph - 0.01 in Rain Light Rain
4:35 AM 44.6 °F 37.8 °F 42.8 °F 93% 29.65 in 2.0 mi SE 15.0 mph - 0.01 in Rain Light Rain
4:55 AM 44.6 °F 38.8 °F 44.6 °F 100% 29.66 in 7.0 mi SE 11.5 mph 17.3 mph 0.01 in   Scattered Clouds
5:15 AM 44.6 °F 40.2 °F 44.6 °F 100% 29.68 in 7.0 mi SSE 8.1 mph - 0.01 in   Clear
5:35 AM 44.6 °F 42.2 °F 44.6 °F 100% 29.68 in 7.0 mi SSE 4.6 mph - 0.01 in   Scattered Clouds
5:55 AM 46.4 °F - 44.6 °F 93% 29.69 in 5.0 mi Calm Calm - 0.01 in   Mostly Cloudy
6:15 AM 44.6 °F 43.1 °F 42.8 °F 93% 29.66 in 3.0 mi SE 3.5 mph - N/A   Overcast
6:35 AM 44.6 °F 41.4 °F 44.6 °F 100% 29.67 in 2.5 mi South 5.8 mph - N/A   Overcast
7:15 AM 46.4 °F 41.5 °F 44.6 °F 93% 29.69 in 2.5 mi SSE 10.4 mph - N/A   Overcast
7:35 AM 46.4 °F 41.5 °F 44.6 °F 93% 29.70 in 1.5 mi SSE 10.4 mph 16.1 mph N/A   Overcast
7:55 AM 46.4 °F 40.7 °F 44.6 °F 93% 29.70 in 2.0 mi SSE 12.7 mph - N/A   Overcast
8:15 AM 46.4 °F 40.7 °F 46.4 °F 100% 29.69 in 3.0 mi SSE 12.7 mph 19.6 mph N/A   Overcast
8:35 AM 46.4 °F 41.5 °F 44.6 °F 93% 29.69 in 2.5 mi SSE 10.4 mph - N/A   Overcast
8:55 AM 46.4 °F 41.5 °F 44.6 °F 93% 29.70 in 3.0 mi SSE 10.4 mph - N/A   Overcast
9:15 AM 46.4 °F 41.1 °F 44.6 °F 93% 29.71 in 5.0 mi SSE 11.5 mph 18.4 mph N/A Rain Rain
9:35 AM 46.4 °F 40.7 °F 44.6 °F 93% 29.72 in 3.0 mi South 12.7 mph - N/A Rain Light Rain
9:55 AM 46.4 °F 41.9 °F 44.6 °F 93% 29.71 in 2.5 mi South 9.2 mph 16.1 mph 0.01 in Rain Rain
10:15 AM 46.4 °F 42.4 °F 44.6 °F 93% 29.69 in 1.8 mi SSE 8.1 mph - 0.01 in Rain Light Rain
10:35 AM 44.6 °F 41.4 °F 44.6 °F 100% 29.65 in 0.8 mi SE 5.8 mph - 0.01 in   Drizzle
10:55 AM 44.6 °F 41.4 °F 44.6 °F 100% 29.69 in 0.5 mi South 5.8 mph - 0.02 in Rain Light Rain
11:15 AM 46.4 °F 43.5 °F 44.6 °F 93% 29.69 in 0.2 mi SSE 5.8 mph - 0.01 in Rain Light Rain
11:35 AM 44.6 °F 39.7 °F 42.8 °F 93% 29.71 in 0.2 mi South 9.2 mph - 0.04 in Rain Rain
11:55 AM 44.6 °F 40.2 °F 44.6 °F 100% 29.70 in 0.2 mi South 8.1 mph - 0.08 in Rain Rain
12:15 PM 46.4 °F 43.5 °F 44.6 °F 93% 29.68 in 0.2 mi SSW 5.8 mph - 0.02 in Rain Light Rain
12:35 PM 46.4 °F 42.9 °F 46.4 °F 100% 29.68 in 0.2 mi South 6.9 mph - 0.03 in Rain Light Rain
12:55 PM 46.4 °F 43.5 °F 46.4 °F 100% 29.68 in 0.2 mi South 5.8 mph - 0.04 in Rain Light Rain
1:15 PM 46.4 °F 42.9 °F 46.4 °F 100% 29.69 in 2.5 mi SSW 6.9 mph - 0.03 in Rain Rain
1:35 PM 48.2 °F - 46.4 °F 93% 29.68 in 2.5 mi SW 8.1 mph - 0.07 in Rain Rain
1:55 PM 48.2 °F - 46.4 °F 93% 29.66 in 1.8 mi SSW 6.9 mph - 0.09 in Rain Light Rain
2:15 PM 48.2 °F - 46.4 °F 93% 29.68 in 1.5 mi SSW 9.2 mph - 0.02 in Rain Light Rain
2:35 PM 48.2 °F - 46.4 °F 93% 29.66 in 1.8 mi South 3.5 mph - 0.05 in Rain Rain
2:55 PM 48.2 °F - 46.4 °F 93% 29.65 in 0.8 mi SSE 4.6 mph - 0.07 in Rain Light Rain
3:15 PM 48.2 °F - 46.4 °F 93% 29.59 in 0.5 mi ENE 8.1 mph - 0.01 in Rain Light Rain
3:35 PM 48.2 °F - 46.4 °F 93% 29.56 in 0.2 mi East 8.1 mph - 0.01 in Fog Fog
3:55 PM 46.4 °F - 46.4 °F 100% 29.58 in 0.2 mi Calm Calm - 0.01 in Fog Fog
4:15 PM 48.2 °F - 46.4 °F 93% 29.63 in 0.2 mi SW 13.8 mph - N/A Rain Light Rain
4:35 PM 46.4 °F 41.9 °F 46.4 °F 100% 29.63 in 1.0 mi SW 9.2 mph - 0.02 in Rain Rain
4:55 PM 46.4 °F 42.9 °F 46.4 °F 100% 29.64 in 2.0 mi SW 6.9 mph - 0.06 in Rain Rain
5:15 PM 46.4 °F 44.3 °F 44.6 °F 93% 29.63 in 1.0 mi SSW 4.6 mph - 0.05 in Rain Light Rain
5:35 PM 46.4 °F 45.2 °F 46.4 °F 100% 29.62 in 1.5 mi WSW 3.5 mph - 0.06 in Rain Light Rain
5:55 PM 46.4 °F 45.2 °F 46.4 °F 100% 29.62 in 1.8 mi SW 3.5 mph - 0.07 in Rain Light Rain
6:15 PM 46.4 °F 44.3 °F 44.6 °F 93% 29.63 in 1.5 mi SW 4.6 mph - N/A   Overcast
6:35 PM 46.4 °F 43.5 °F 44.6 °F 93% 29.63 in 1.5 mi WSW 5.8 mph - 0.03 in Rain Light Rain
6:55 PM 46.4 °F 44.3 °F 44.6 °F 93% 29.64 in 2.0 mi SW 4.6 mph - 0.03 in   Light Drizzle
7:15 PM 46.4 °F 45.2 °F 44.6 °F 93% 29.64 in 1.5 mi SW 3.5 mph - 0.01 in   Light Drizzle
7:35 PM 44.6 °F - 42.8 °F 93% 29.64 in 0.5 mi Calm Calm - 0.01 in Rain Light Rain
7:55 PM 44.6 °F - 44.6 °F 100% 29.65 in 0.2 mi Calm Calm - 0.02 in Fog Fog
8:15 PM 44.6 °F - 42.8 °F 93% 29.65 in 0.2 mi Calm Calm - N/A Fog Fog
8:35 PM 44.6 °F - 42.8 °F 93% 29.65 in 0.2 mi Calm Calm - N/A Fog Fog
9:15 PM 44.6 °F 43.1 °F 42.8 °F 93% 29.65 in 0.2 mi SSW 3.5 mph - N/A Fog Fog
9:35 PM 44.6 °F 42.2 °F 42.8 °F 93% 29.66 in 0.2 mi SSW 4.6 mph - N/A Fog Fog
9:55 PM 44.6 °F 41.4 °F 42.8 °F 93% 29.66 in 0.2 mi WSW 5.8 mph - N/A Fog Fog
10:15 PM 42.8 °F 41.1 °F 41.0 °F 93% 29.67 in 0.2 mi WSW 3.5 mph - N/A Fog Fog
10:35 PM 41.0 °F 37.1 °F 39.2 °F 93% 29.66 in 0.2 mi WNW 5.8 mph - N/A Fog Fog
10:55 PM 41.0 °F 39.0 °F 39.2 °F 93% 29.67 in 0.2 mi West 3.5 mph - N/A Fog Fog
11:15 PM 39.2 °F - 39.2 °F 100% 29.67 in 0.2 mi Calm Calm - N/A Fog Fog
11:35 PM 39.2 °F 34.2 °F 39.2 °F 100% 29.67 in 0.2 mi West 6.9 mph - N/A Fog Fog
11:55 PM 39.2 °F 34.2 °F 39.2 °F 100% 29.67 in 0.8 mi WSW 6.9 mph - N/A   Overcast
12:15 AM 39.2 °F 33.0 °F 37.4 °F 93% 29.67 in 1.5 mi WSW 9.2 mph - 0.01 in   Overcast
12:35 AM 37.4 °F 30.3 °F 37.4 °F 100% 29.67 in 1.5 mi WSW 10.4 mph - 0.01 in   Drizzle
12:55 AM 37.4 °F 32.8 °F 37.4 °F 100% 29.68 in 2.5 mi WSW 5.8 mph 17.3 mph 0.01 in   Overcast